"Pseudo-MPEC" for W06279

Created 2023 Nov 26 16:22:11 UT using Find_Orb

Click here for an explanation of pseudo-MPECs

 
 Astrometry: 
     W06279 * C2023 11 18VX3Astrometrys1q^1j]KnuP@dh9^S+hredacted;/#=click]jtO18
     W06279   C2023 11 18\H-/YXmDIPJq%4F?9here#/EE=%wlyYn-BMeirhtv`foryPtyoP9O18
     W06279   C2023 11 18M_8rX:iZ?fsytA!EeM4_IN^8oR+BkwoI78)1%c*X7explanationO18

Station data:
(O18) WFST, Lenghu  (N38.607601 E93.895220).

Orbital elements:  W06279
   Perihelion 2024 Apr 22.49369 +/- 161 TT = 11:50:54 (JD 2460422.99369)
Epoch 2023 Nov 19.0 TT = JDT 2460267.5   Earth MOID: 0.1328      AutoNEOCP
M 289.74231683 +/- 60               (J2000 ecliptic)
n   0.45183623 +/- 0.292            Peri.  115.65180 +/- 90
a   1.68195877 +/- 0.725            Node    62.14564 +/- 27
e   0.4197833 +/- 0.275             Incl.   28.02832 +/- 28
P   2.18/796.73d           H 21.03  G  0.15   U 11.9  SR
q 0.97590048 +/- 0.608    Q 2.38801707 +/- 29.4
From 3 observations 2023 Nov. 18 (18.5 min); mean residual 0".08
Residuals in arcseconds: 
231118 O18  .06-  .05+    231118 O18  .12+  .10-    231118 O18  .06-  .05+    

Ephemerides (geocentric):
Date (UTC) HH   RA             Dec           delta  r     elong  mag " sig PA
---- --------  ------------   ------------  ------ ------ -----  --- --------
2023 11 26 16  03 51 06.438   +20 13 24.22  .70635 1.6924 176.2 21.7  32d 103
2023 11 26 17  03 50 59.465   +20 14 12.99  .70616 1.6921 176.1 21.7  32d 103
2023 11 26 18  03 50 52.487   +20 15 01.76  .70597 1.6919 176.0 21.7  32d 103
2023 11 26 19  03 50 45.505   +20 15 50.55  .70578 1.6917 176.0 21.7  32d 103
2023 11 26 20  03 50 38.519   +20 16 39.35  .70559 1.6914 175.9 21.7  32d 103
2023 11 26 21  03 50 31.528   +20 17 28.16  .70540 1.6912 175.8 21.7  32d 103
2023 11 26 22  03 50 24.533   +20 18 16.97  .70521 1.6910 175.8 21.7  32d 103
2023 11 26 23  03 50 17.534   +20 19 05.80  .70503 1.6907 175.7 21.7  32d 103
2023 11 27 00  03 50 10.531   +20 19 54.64  .70484 1.6905 175.6 21.7  32d 103
2023 11 27 01  03 50 03.523   +20 20 43.49  .70465 1.6903 175.6 21.7  32d 103
2023 11 27 02  03 49 56.511   +20 21 32.34  .70447 1.6901 175.5 21.7  32d 103
2023 11 27 03  03 49 49.494   +20 22 21.21  .70428 1.6898 175.4 21.7  32d 103
2023 11 27 04  03 49 42.474   +20 23 10.09  .70410 1.6896 175.4 21.7  32d 103
2023 11 27 05  03 49 35.449   +20 23 58.97  .70391 1.6894 175.3 21.7  32d 103
2023 11 27 06  03 49 28.420   +20 24 47.87  .70373 1.6891 175.2 21.7  32d 103
2023 11 27 07  03 49 21.387   +20 25 36.77  .70354 1.6889 175.2 21.7  32d 103
2023 11 27 08  03 49 14.349   +20 26 25.69  .70336 1.6887 175.1 21.7  32d 103
2023 11 27 09  03 49 07.308   +20 27 14.61  .70318 1.6884 175.0 21.7  32d 103
2023 11 27 10  03 49 00.262   +20 28 03.54  .70300 1.6882 175.0 21.7  32d 103
2023 11 27 11  03 48 53.212   +20 28 52.49  .70282 1.6880 174.9 21.7  32d 103
2023 11 27 12  03 48 46.158   +20 29 41.44  .70264 1.6877 174.8 21.7  32d 103
2023 11 27 13  03 48 39.100   +20 30 30.39  .70246 1.6875 174.8 21.7  32d 103
2023 11 27 14  03 48 32.038   +20 31 19.36  .70228 1.6873 174.7 21.7  32d 103
2023 11 27 15  03 48 24.972   +20 32 08.34  .70210 1.6871 174.6 21.7  32d 103
2023 11 27 16  03 48 17.902   +20 32 57.32  .70192 1.6868 174.6 21.7  32d 103
2023 11 27 17  03 48 10.827   +20 33 46.31  .70174 1.6866 174.5 21.7  32d 103
2023 11 27 18  03 48 03.749   +20 34 35.31  .70156 1.6864 174.4 21.7  32d 103
2023 11 27 19  03 47 56.667   +20 35 24.32  .70139 1.6861 174.4 21.7  32d 103
2023 11 27 20  03 47 49.581   +20 36 13.34  .70121 1.6859 174.3 21.7  32d 103
2023 11 27 21  03 47 42.491   +20 37 02.36  .70103 1.6857 174.2 21.7  32d 103
2023 11 27 22  03 47 35.396   +20 37 51.40  .70086 1.6854 174.2 21.7  32d 103
2023 11 27 23  03 47 28.298   +20 38 40.44  .70068 1.6852 174.1 21.7  32d 103
2023 11 28 00  03 47 21.196   +20 39 29.48  .70051 1.6850 174.0 21.7  32d 103
2023 11 28 01  03 47 14.090   +20 40 18.54  .70034 1.6847 174.0 21.7  32d 103
2023 11 28 02  03 47 06.981   +20 41 07.60  .70016 1.6845 173.9 21.7  32d 103
2023 11 28 03  03 46 59.867   +20 41 56.67  .69999 1.6843 173.8 21.7  32d 103
2023 11 28 04  03 46 52.749   +20 42 45.74  .69982 1.6840 173.8 21.7  33d 103
2023 11 28 05  03 46 45.628   +20 43 34.83  .69965 1.6838 173.7 21.7  33d 103
2023 11 28 06  03 46 38.503   +20 44 23.92  .69948 1.6836 173.6 21.7  33d 103
2023 11 28 07  03 46 31.374   +20 45 13.01  .69931 1.6833 173.5 21.7  33d 103
2023 11 28 08  03 46 24.241   +20 46 02.12  .69914 1.6831 173.5 21.7  33d 103
2023 11 28 09  03 46 17.105   +20 46 51.23  .69897 1.6829 173.4 21.7  33d 103
2023 11 28 10  03 46 09.965   +20 47 40.34  .69880 1.6827 173.3 21.7  33d 103
2023 11 28 11  03 46 02.821   +20 48 29.47  .69863 1.6824 173.3 21.7  33d 103
2023 11 28 12  03 45 55.673   +20 49 18.60  .69846 1.6822 173.2 21.7  33d 102
2023 11 28 13  03 45 48.522   +20 50 07.73  .69830 1.6820 173.1 21.8  33d 102
2023 11 28 14  03 45 41.367   +20 50 56.87  .69813 1.6817 173.1 21.8  33d 102
2023 11 28 15  03 45 34.208   +20 51 46.02  .69796 1.6815 173.0 21.8  33d 102